Warning: Javascript must be enabled to use all the features on this page!


Page Loading - Please Wait...

Click to hideNews Bulletins

Streamflow Measurements for Washington

Click to hide state-specific text

USGS 12172000 BIG BEAVER CREEK NEAR NEWHALEM, WA


Whatcom County, Washington
Hydrologic Unit Code 17110005
Latitude  48°46'40", Longitude 121°04'20" NAD27
Drainage area 63.2  square miles
Gage datum 1,600 feet above NGVD29
Output formats
HTML table with channel data
HTML table without channel data
Tab-separated data with channel data
Tab-separated data without channel data
Graph of data
Reselect output format
Meas.
Number
  Date       Time Time
Datum
Measurement
Used?
  Who Measuring
Agency
Stream
flow
(ft3/s)
Gage
Height
(ft)
GH
Change
(ft)
Meas.
Duration
(hr)
Meas.
Rated
  Control Flow
Adjust.
Code
 
1542019-10-10 11:08:42PDTYesJBG/BJHUSGS1851.190.000.25FairClearNONE
1532019-08-19 10:55:25PDTYesJBG/JJHUSGS2161.360.00 FairClearNONE
1522019-06-11 11:31:22PDTYesJBG/JJMUSGS4322.150.000.24GoodClearNONE
1512019-04-09 12:32:45PDTYesJBG/GWHUSGS3341.870.000.25FairClearNONE
1502019-02-14 12:38:25PSTYesJBG/KFJUSGS1310.920.000.26FairClearNONE
1492018-11-27 11:17:09PSTYesJBG/GWHUSGS30205.47-0.030.23GoodClearNONE
1482018-11-27 10:18:17PSTYesJBG/GWHUSGS31105.530.000.25GoodClearNONE
1472018-11-13 10:31:32PSTYesJBG/GWHUSGS2361.43-0.020.38GoodClearNONE
1462018-09-19 10:33:35PDTYesjbg/jjmUSGS1430.970.000.20GoodClearNONE
1452018-06-28 08:28:51PDTYesJJM/GWH/JMP/USGS5612.410.000.23FairClearNONE
1442018-06-27 14:19:23PDTYesJJM/GWH/JMP/USGS6012.520.000.23Good NONE
1432018-06-27 08:23:38PDTYesJJM/GWH/JMP/USGS6602.63-0.020.23GoodClearNONE
1422018-06-26 10:11:10PDTYesJMP/GWHUSGS8713.01-0.010.25Good NONE
1412018-06-25 17:44:31PDTYesJJM/GWH/JMP/USGS11503.490.000.22Good NONE
1391969-10-01 05:00PDTYesRQUSGS7433.04 Good NONE
1381969-08-12 05:00PDTYesDHAUSGS2841.68 Excellent NONE
1371969-06-17 05:00PDTYesRQUSGS12203.78 Good NONE
1361969-04-30 05:00PDTYesWMMUSGS4512.27 Good NONE
1351969-02-24 04:00PSTYesDHAUSGS69.30.54 Good NONE
1341968-12-19 04:00PSTYesRQUSGS1611.10 Good NONE
1331968-11-19 04:00PSTYesRQUSGS7733.03 Good NONE
1321968-09-25 05:00PDTYesRQUSGS2661.58 Good NONE
1311968-08-15 05:00PDTYesRQUSGS3711.96 Good NONE
1301968-03-26 04:00PSTYesR/AUSGS2461.60 Good NONE
1291968-01-31 04:00PSTYesM/QUSGS3391.87 Good NONE
1281967-11-09 04:00PSTYesWMMUSGS4082.14 Good NONE
1271967-07-27 05:00PDTYesWMMUSGS7032.89 Good NONE
1261967-06-22 05:00PDTYesM/WUSGS20004.94 Good NONE
1251967-03-28 04:00PSTYesW/MUSGS2161.38 Good NONE
1241967-01-22 04:00PSTYesWMMUSGS2221.42 Good NONE
1231966-11-03 04:00PSTYesWMMUSGS2611.58 Good NONE
1221966-09-14 05:00PDTYesAWMUSGS3351.86 Good NONE
1211966-08-02 05:00PDTYesWMMUSGS5722.56 Good NONE
1201966-06-04 05:00PDTYesWMMUSGS5222.44 Good NONE
1191966-05-05 05:00PDTYesWMMUSGS9103.34 Good NONE
1181966-02-24 04:00PSTYesS/RUSGS83.20.64 Good NONE
1171966-01-28 04:00PSTYesR/HUSGS1130.84 Unspecified NONE
1161965-11-17 04:00PSTYesWMMUSGS3001.72 Good NONE
1151965-10-06 05:00PDTYesWMMUSGS17004.58 Good NONE
1141965-08-24 05:00PDTYesWMMUSGS4062.06 Good NONE
1131965-07-16 05:00PDTYesWMMUSGS6802.80 Good NONE
1121965-06-09 05:00PDTYesWMMUSGS10103.47 Good NONE
1111965-04-27 05:00PDTYesHMUSGS8163.09 Good NONE
1101965-03-29 04:00PSTYesR/SUSGS1381.01 Good NONE
1091965-02-24 04:00PSTYesM/WUSGS2121.39 Good NONE
1081965-01-17 04:00PSTYesWMMUSGS1250.88 Fair NONE
1071964-11-05 04:00PSTYesWMMUSGS3241.84 Good NONE
1061964-09-28 05:00PDTYesWMMUSGS2291.46 Good NONE
1051964-08-20 05:00PDTYesWMMUSGS3862.01 Good NONE
1041964-07-15 05:00PDTYesWMMUSGS14704.22 Good NONE
1031964-06-10 05:00PDTYesWMMUSGS14704.23 Good NONE
1021964-04-29 05:00PDTYesHMUSGS2981.82 Excellent NONE
1011964-03-26 04:00PSTYesM/RUSGS1090.81 Good NONE
1001964-02-26 04:00PSTYesB/MUSGS1220.85 Good NONE
991964-02-02 04:00PSTYesCPUSGS1501.07 Fair NONE
981963-12-18 04:00PSTYesWFUSGS1781.16 Fair NONE
971963-11-20 04:00PSTYesWFUSGS3701.98 Unspecified NONE
961963-10-16 05:00PDTYesWFUSGS3011.71 Good NONE
951963-08-28 05:00PDTYesF/HUSGS2801.68 Good NONE
941963-06-30 05:00PDTYesWVFUSGS3902.02 Good NONE
931963-04-27 04:00PSTYesHBUSGS2571.53 Good NONE
921963-03-28 04:00PSTYesWMCUSGS2191.40 Good NONE
911963-02-26 04:00PSTYesCEPUSGS6112.64 Good NONE
901963-01-28 04:00PSTYesR/MUSGS1090.80 Good NONE
891962-12-12 04:00PSTYesDRUSGS3882.09 Fair NONE
881962-11-02 04:00PSTYesF/MUSGS2261.50 Good NONE
871948-09-14 05:00PDTYesWMMUSGS2752.27 Good NONE
861948-07-14 05:00PDTYesM/FUSGS5473.13 Good NONE
851948-06-11 05:00PDTYesM/RUSGS20505.74 Excellent NONE
841948-04-28 05:00PDTYesH/YUSGS3572.56 Good NONE
831948-03-31 05:00PDTYesR/JUSGS1511.70 Good NONE
821948-02-27 04:00PSTYesO/CUSGS1441.60 Good NONE
811948-01-30 04:00PSTYesH/HUSGS1031.37 Fair NONE
801947-12-30 04:00PSTYesB/FUSGS4602.87 Good NONE
791947-12-05 04:00PSTYesO/SUSGS1461.60 Good NONE
781947-09-19 04:00PSTYesWHRUSGS1401.55 Good NONE
771947-08-05 04:00PSTYesR/VUSGS3872.57 Fair NONE
761947-06-24 04:00PSTYesWHRUSGS7593.62 Good NONE
751947-05-22 04:00PSTYesHCBUSGS6873.42 Good NONE
741947-03-28 04:00PSTYesHCBUSGS2852.26 Good NONE
731947-02-26 04:00PSTYesO/BUSGS2352.07 Good NONE
721947-01-29 04:00PSTYesB/HUSGS2192.03 Good NONE
711947-01-05 04:00PSTYesK/ZUSGS1051.37 Good NONE
701946-12-09 04:00PSTYesV/RUSGS3092.36 Excellent NONE
691946-10-25 04:00PSTYesH/ZUSGS10104.18 Good NONE
681946-09-07 04:00PSTYesFBHUSGS2512.19 Good NONE
671946-07-16 04:00PSTYesFBHUSGS6163.40 Good NONE
661946-05-30 04:00PSTYesWMCUSGS10504.11 Unspecified NONE
651946-05-15 04:00PSTYesFBHUSGS8853.90 Good NONE
641946-05-07 04:00PSTYesH/HUSGS11104.44 Good NONE
631946-04-02 04:00PSTYesWFHUSGS2162.01 Good NONE
621946-02-26 04:00PSTYesH/HUSGS2922.33 Good NONE
611946-01-09 04:00PSTYesD/HUSGS1601.69 Fair NONE
601945-11-20 04:00PSTYesH/HUSGS2342.10 Good NONE
591945-09-23 05:00PDTYesFWKUSGS1511.69 Good NONE
581945-06-30 05:00PDTYesFWKUSGS5003.02 Good NONE
571945-05-10 05:00PDTYesWHUSGS8383.80 Good NONE
561945-03-31 05:00PDTYesH/SUSGS1981.97 Fair NONE
551945-02-28 05:00PDTYesC/HUSGS1251.55 Good NONE
541945-01-04 05:00PDTYesMWHUSGS95.31.26 Good NONE
531944-11-11 05:00PDTYesJHJUSGS2662.30 Fair NONE
521944-09-24 05:00PDTYesH/CUSGS2902.32 Unspecified NONE
511944-08-07 05:00PDTYesFWKUSGS2342.09 Good NONE
501944-06-25 05:00PDTYesFWKUSGS4802.95 Good NONE
491944-05-14 05:00PDTYesFWKUSGS5363.11 Good NONE
481944-05-12 05:00PDTYesFWKUSGS3262.47 Good NONE
471944-03-28 05:00PDTYesK/MUSGS1271.55 Good NONE
461944-02-25 05:00PDTYesC/MUSGS79.41.15 Good NONE
451944-01-28 05:00PDTYesFWKUSGS1481.68 Unspecified NONE
441943-12-02 05:00PDTYesFWKUSGS1461.66 Good NONE
431943-10-15 05:00PDTYesC/TUSGS1651.78 Good NONE
421943-08-28 05:00PDTYesGWCUSGS3002.37 Excellent NONE
411943-08-04 05:00PDTYesFMVUSGS4562.85 Good NONE
401943-07-04 05:00PDTYesV/CUSGS13604.78 Excellent NONE
391943-05-27 05:00PDTYesFWKUSGS12404.55 Good NONE
381943-05-23 05:00PDTYesFWKUSGS12204.53 Good NONE
371943-05-22 05:01PDTYesFWKUSGS10604.25 Good NONE
361943-05-22 05:00PDTYesFWKUSGS8283.83 Good NONE
351943-04-06 05:00PDTYesK/CUSGS3882.68 Good NONE
341943-02-20 05:00PDTYesC/TUSGS1501.68 Good NONE
331942-12-08 05:00PDTYesFWKUSGS1241.52 Good NONE
321942-10-21 05:00PDTYesK/CUSGS94.11.26 Fair NONE
311942-09-17 05:00PDTYesGWCUSGS1031.35 Good NONE